This is the latest recevied weather packets stored in our database for station/object WB4ZUT. If no packets are shown the sender has not sent any weather packets the latest 10 day(s).
| Time | Temp. | Humidity | Pressure | Rain* | Wind** | Luminosity | Snow |
|---|---|---|---|---|---|---|---|
| 1778092671 | 16.11° C | 61% | 1014.9 hPa | 0 mm | - | 745 W/m² | - |
| 1778092372 | 16.67° C | 59% | 1014.8 hPa | 0 mm | - | 517 W/m² | - |
| 1778092069 | 16.67° C | 58% | 1014.8 hPa | 0 mm | - | 500 W/m² | - |
| 1778091766 | 16.67° C | 61% | 1015 hPa | 0 mm | - | 783 W/m² | - |
| 1778091464 | 16.11° C | 58% | 1014.9 hPa | 0 mm | - | 884 W/m² | - |
| 1778091162 | 16.67° C | 58% | 1014.7 hPa | 0 mm | - | 494 W/m² | - |
| 1778090859 | 16.11° C | 63% | 1014.8 hPa | 0 mm | - | 735 W/m² | - |
| 1778090554 | 16.67° C | 61% | 1014.8 hPa | 0 mm | - | 638 W/m² | - |
| 1778090251 | 16.11° C | 61% | 1015 hPa | 0 mm | - | 786 W/m² | - |
| 1778089948 | 15.56° C | 62% | 1014.8 hPa | 0 mm | - | 750 W/m² | - |
| 1778089645 | 16.11° C | 63% | 1014.6 hPa | 0 mm | - | 691 W/m² | - |
| 1778089342 | 15° C | 63% | 1014.7 hPa | 0 mm | - | 727 W/m² | - |
| 1778089040 | 15° C | 65% | 1014.8 hPa | 0 mm | - | 765 W/m² | - |
| 1778088736 | 15° C | 65% | 1014.9 hPa | 0 mm | - | 369 W/m² | - |
| 1778088433 | 15.56° C | 61% | 1015 hPa | 0 mm | - | 744 W/m² | - |
| 1778088130 | 15° C | 67% | 1014.7 hPa | 0 mm | - | 803 W/m² | - |
| 1778087828 | 15° C | 62% | 1014.9 hPa | 0 mm | - | 442 W/m² | - |
| 1778087525 | 15.56° C | 66% | 1015.1 hPa | 0 mm | - | 508 W/m² | - |
| 1778087222 | 15° C | 67% | 1015.4 hPa | 0 mm | - | 533 W/m² | - |
| 1778086919 | 14.44° C | 68% | 1015.3 hPa | 0 mm | - | 641 W/m² | - |
| 1778086617 | 14.44° C | 69% | 1015.1 hPa | 0 mm | - | 592 W/m² | - |
| 1778086314 | 13.89° C | 70% | 1014.9 hPa | 0 mm | - | 554 W/m² | - |
| 1778086010 | 13.89° C | 70% | 1015.2 hPa | 0 mm | - | 486 W/m² | - |
| 1778085708 | 13.89° C | 73% | 1015.3 hPa | 0 mm | - | 393 W/m² | - |
| 1778085404 | 13.33° C | 72% | 1015.3 hPa | 0 mm | - | 351 W/m² | - |
* Rain latest hour (hover to see other rain measurements)
** Current wind speed in m/s (hover to see current wind gust speed)